Terminal Aerodrome Forecast
Issued by NWS Charleston, WV

Current Version | Previous Version | Text Only | Print | Product List | Glossary Off
Versions: 1 2 3 4 5 6 7 8 9 10 11 12 13 14 15 16 17 18 19 20 21 22 23

660
FTUS41 KRLX 212329
TAFBKW
TAF
KBKW 212329Z 2200/2224 20006KT P6SM SCT120
     FM220500 25006KT P6SM BKN040
     FM220800 28006KT P6SM SCT100
     FM221100 31006KT P6SM BKN023
     FM221200 32006KT P6SM BKN013
     FM221700 33007KT P6SM SCT035=

USA.gov is the U.S. government's official web portal to all federal, state and local government web resources and services.